Liberty, KS

6:16 AM CDT on September 28, 2016 (GMT -0500)
Coffeyville Municipal

Weather History for KCFV - September, 2012

Change the Weather History Date:

Monday, September 17, 2012

  Actual Average Record
Temperature  
Mean Temperature 71 °F -  
Max Temperature 82 °F 80 °F 93 °F (2004)
Min Temperature 60 °F 57 °F 48 °F (2000)
Cooling Degree Days 6    
Growing Degree Days 21 (Base 50)    
Moisture  
Dew Point 61 °F    
Average Humidity 84    
Maximum Humidity 100    
Minimum Humidity 49    
Precipitation  
Precipitation 0.11 in - - ()
Sea Level Pressure  
Sea Level Pressure 29.91 in    
Wind  
Wind Speed 3 mph (NE)    
Max Wind Speed 22 mph    
Max Gust Speed 30 mph    
Visibility 7 miles    
Events Fog , Rain , Thunderstorm    
Averages and records for this station are not official NWS values.
T = Trace of Precipitation, MM = Missing Value Source: NWS Daily Summary

Daily Weather History Graph

Daily Weather History Graph

Search for Another Location

Airport or City:

Trip Planner

Search our weather history database for the weather conditions in past years. The results will help you decide how hot, cold, wet, or windy it might be!

Date:

Astronomy

Sep. 17, 2012 Rise Set
Actual Time 7:06 AM CDT 7:26 PM CDT
Civil Twilight 6:40 AM CDT 7:52 PM CDT
Nautical Twilight 6:09 AM CDT 8:22 PM CDT
Astronomical Twilight 5:38 AM CDT 8:53 PM CDT
Moon 8:52 AM CDT (9/17) 8:13 PM CDT (9/17)
Length of Visible Light 13h 11m
Length of Day
12h 19m
Waxing Crescent, 3% of the Moon is Illuminated
Sep 17
Waxing Crescent
Sep 22
First Quarter
Sep 29
Full
Oct 8
Last Quarter
Oct 15
New

Hourly Weather History & Observations

Time (CDT) Temp. Heat Index Dew Point Humidity Pressure Visibility Wind Dir Wind Speed Gust Speed Precip Events Conditions
12:52 AM 63.0 °F - 61.0 °F 93% 29.95 in 10.0 mi South 3.5 mph - N/A   Clear
1:52 AM 62.1 °F - 61.0 °F 96% 29.94 in 10.0 mi Calm Calm - N/A   Clear
2:52 AM 62.1 °F - 60.1 °F 93% 29.93 in 10.0 mi SE 3.5 mph - N/A   Partly Cloudy
3:52 AM 61.0 °F - 60.1 °F 97% 29.92 in 8.0 mi Calm Calm - N/A   Partly Cloudy
4:52 AM 62.1 °F - 60.1 °F 93% 29.91 in 9.0 mi Calm Calm - N/A   Mostly Cloudy
5:52 AM 61.0 °F - 60.1 °F 97% 29.91 in 6.0 mi SSE 3.5 mph - N/A   Clear
6:28 AM 60.8 °F - 59.0 °F 94% 29.93 in 2.5 mi Calm Calm - N/A   Partly Cloudy
6:34 AM 60.8 °F - 59.0 °F 94% 29.93 in 1.0 mi Calm Calm - N/A   Mist
6:42 AM 60.8 °F - 59.0 °F 94% 29.93 in 0.5 mi Calm Calm - N/A Fog Fog
6:55 AM 60.8 °F - 59.0 °F 94% 29.93 in 2.0 mi Calm Calm - N/A   Scattered Clouds
7:11 AM 60.8 °F - 59.0 °F 94% 29.94 in 1.8 mi Calm Calm - N/A   Mostly Cloudy
7:26 AM 60.8 °F - 59.0 °F 94% 29.94 in 4.0 mi Calm Calm - 0.01 in   Mostly Cloudy
7:52 AM 61.0 °F - 61.0 °F 100% 29.94 in 4.0 mi Calm Calm - 0.01 in   Overcast
8:03 AM 60.8 °F - 60.8 °F 100% 29.95 in 4.0 mi SSE 3.5 mph - N/A   Overcast
8:21 AM 62.6 °F - 60.8 °F 94% 29.95 in 1.8 mi Calm Calm - N/A   Overcast
8:36 AM 62.6 °F - 62.6 °F 100% 29.95 in 0.8 mi South 3.5 mph - N/A   Overcast
8:52 AM 63.0 °F - 62.1 °F 97% 29.94 in 1.5 mi SSW 4.6 mph - N/A   Overcast
9:25 AM 64.4 °F - 62.6 °F 94% 29.95 in 2.5 mi Calm Calm - N/A   Overcast
9:36 AM 64.4 °F - 64.4 °F 100% 29.94 in 3.0 mi SSE 3.5 mph - N/A   Mostly Cloudy
9:52 AM 66.0 °F - 64.0 °F 93% 29.93 in 6.0 mi SSE 3.5 mph - N/A   Overcast
10:20 AM 68.0 °F - 64.4 °F 88% 29.93 in 8.0 mi Calm Calm - N/A   Scattered Clouds
10:52 AM 71.1 °F - 64.0 °F 78% 29.92 in 10.0 mi Calm Calm - N/A   Clear
11:52 AM 75.0 °F - 64.0 °F 69% 29.91 in 10.0 mi North 4.6 mph - N/A   Partly Cloudy
12:52 PM 77.0 °F - 63.0 °F 62% 29.90 in 10.0 mi Variable 3.5 mph - N/A   Mostly Cloudy
1:52 PM 79.0 °F - 62.1 °F 56% 29.87 in 10.0 mi West 4.6 mph - N/A   Scattered Clouds
2:52 PM 80.1 °F 81.1 °F 61.0 °F 52% 29.85 in 10.0 mi Calm Calm - N/A   Scattered Clouds
3:52 PM 81.0 °F 81.7 °F 61.0 °F 50% 29.83 in 10.0 mi NW 6.9 mph - N/A   Mostly Cloudy
4:52 PM 82.0 °F 82.7 °F 61.0 °F 49% 29.81 in 10.0 mi ENE 3.5 mph - N/A   Clear
5:52 PM 82.0 °F 82.7 °F 61.0 °F 49% 29.81 in 10.0 mi ENE 4.6 mph - N/A   Clear
6:52 PM 78.1 °F - 63.0 °F 60% 29.83 in 10.0 mi East 4.6 mph - N/A   Mostly Cloudy
7:52 PM 75.9 °F - 66.0 °F 71% 29.83 in 10.0 mi Calm Calm - N/A   Overcast
8:42 PM 69.8 °F - 62.6 °F 78% 29.89 in 6.0 mi North 19.6 mph 29.9 mph 0.04 in Rain , Thunderstorm Heavy Thunderstorms and Rain
8:52 PM 66.9 °F - 64.0 °F 90% 29.88 in 5.0 mi North 21.9 mph 27.6 mph 0.10 in Rain , Thunderstorm Light Thunderstorms and Rain
9:32 PM 64.4 °F - 62.6 °F 94% 29.92 in 10.0 mi North 13.8 mph 25.3 mph 0.00 in   Mostly Cloudy
9:52 PM 64.9 °F - 62.1 °F 90% 29.92 in 10.0 mi North 12.7 mph - 0.00 in   Overcast
10:52 PM 64.0 °F - 57.9 °F 80% 29.95 in 10.0 mi North 16.1 mph 23.0 mph N/A   Mostly Cloudy
11:52 PM 63.0 °F - 55.9 °F 78% 29.97 in 10.0 mi North 17.3 mph 26.5 mph N/A   Overcast